Weather History for Naples, Italy

Change the Weather History Date:

Saturday, August 3, 2013

  Actual Average Record
Temperature  
Mean Temperature 82 °F -  
Max Temperature 91 °F 84 °F 96 °F (1998)
Min Temperature 73 °F 64 °F 68 °F (1997)
Cooling Degree Days 17    
Growing Degree Days 32 (Base 50)    
Moisture  
Dew Point 64 °F    
Average Humidity 51    
Maximum Humidity 65    
Minimum Humidity 38    
Precipitation  
Precipitation 0.00 in 0.06 in - ()
Sea Level Pressure  
Sea Level Pressure 30.04 in    
Wind  
Wind Speed 3 mph ()    
Max Wind Speed 9 mph    
Max Gust Speed -    
Averages and records for this station are not official NWS values.
T = Trace of Precipitation, MM = Missing Value Source: Averaged Metar Reports

Daily Weather History Graph

Daily Weather History Graph

Search for Another Location

Airport:

Trip Planner

Search our weather history database for the weather conditions in past years. The results will help you decide how hot, cold, wet, or windy it might be!

Date:

Astronomy

Aug. 03, 2013 Rise Set
Actual Time 6:00 AM CEST 8:16 PM CEST
Civil Twilight 5:30 AM CEST 8:46 PM CEST
Nautical Twilight 4:52 AM CEST 9:24 PM CEST
Astronomical Twilight 4:10 AM CEST 10:05 PM CEST
Moon 2:55 AM CEST (8/3) 5:46 PM CEST (8/3)
Length of Visible Light 15h 16m
Length of Day
14h 15m
Waning Crescent, 11% of the Moon is Illuminated
Aug 3
Waning Crescent
Aug 6
New
Aug 14
First Quarter
Aug 21
Full
Aug 28
Last Quarter

Hourly Weather History & Observations

Time (CEST) Temp. Heat Index Dew Point Humidity Pressure Visibility Wind Dir Wind Speed Gust Speed Precip Events Conditions
12:20 AM 80.6 °F 81.5 °F 60.8 °F 51% 30.04 in - NNE 2.3 mph - N/A   Clear
12:50 AM 78.8 °F - 62.6 °F 57% 30.04 in - Variable 1.2 mph - N/A   Clear
1:20 AM 78.8 °F - 62.6 °F 57% 30.04 in - NNW 1.2 mph - N/A   Clear
1:50 AM 78.8 °F - 62.6 °F 57% 30.04 in - Variable 2.3 mph - N/A   Clear
2:20 AM 77.0 °F - 62.6 °F 61% 30.04 in - Variable 2.3 mph - N/A   Clear
2:50 AM 77.0 °F - 62.6 °F 61% 30.04 in - Variable 2.3 mph - N/A   Clear
3:20 AM 77.0 °F - 60.8 °F 57% 30.01 in - North 2.3 mph - N/A   Clear
3:50 AM 77.0 °F - 60.8 °F 57% 30.01 in - Calm Calm - N/A   Clear
4:20 AM 77.0 °F - 60.8 °F 57% 30.01 in - NE 3.5 mph - N/A   Clear
4:50 AM 73.4 °F - 60.8 °F 65% 30.01 in - NNW 2.3 mph - N/A   Clear
5:20 AM 75.2 °F - 60.8 °F 61% 30.01 in - NE 3.5 mph - N/A   Clear
5:50 AM 75.2 °F - 60.8 °F 61% 30.01 in - North 3.5 mph - N/A   Clear
6:20 AM 75.2 °F - 60.8 °F 61% 30.04 in - NNW 3.5 mph - N/A   Clear
6:50 AM 77.0 °F - 60.8 °F 57% 30.04 in - Variable 2.3 mph - N/A   Clear
7:20 AM 78.8 °F - 60.8 °F 54% 30.04 in - North 3.5 mph - N/A   Clear
7:50 AM 78.8 °F - 60.8 °F 54% 30.04 in - NNE 4.6 mph - N/A   Clear
8:20 AM 82.4 °F 82.9 °F 60.8 °F 48% 30.04 in - NNE 3.5 mph - N/A   Clear
8:50 AM 84.2 °F 84.4 °F 60.8 °F 45% 30.04 in - Variable 2.3 mph - N/A   Clear
9:20 AM 86.0 °F 86.1 °F 60.8 °F 43% 30.06 in - Variable 1.2 mph - N/A   Clear
9:50 AM 87.8 °F 87.6 °F 60.8 °F 40% 30.06 in - West 2.3 mph - N/A   Clear
10:20 AM 87.8 °F 87.1 °F 59.0 °F 38% 30.06 in - Variable 4.6 mph - N/A   Clear
10:50 AM 87.8 °F 87.6 °F 60.8 °F 40% 30.06 in - South 5.8 mph - N/A   Clear
11:20 AM 87.8 °F 88.5 °F 62.6 °F 43% 30.06 in - South 6.9 mph - N/A   Clear
11:50 AM 89.6 °F 90.1 °F 62.6 °F 40% 30.06 in - South 6.9 mph - N/A   Clear
12:20 PM 89.6 °F 92.2 °F 66.2 °F 46% 30.06 in - South 6.9 mph - N/A   Clear
12:50 PM 89.6 °F 92.2 °F 66.2 °F 46% 30.06 in - South 8.1 mph - N/A   Clear
1:20 PM 89.6 °F 93.4 °F 68.0 °F 49% 30.04 in - South 9.2 mph - N/A   Clear
1:50 PM 89.6 °F 93.4 °F 68.0 °F 49% 30.04 in - South 9.2 mph - N/A   Clear
2:20 PM 89.6 °F 93.4 °F 68.0 °F 49% 30.04 in - South 8.1 mph - N/A   Clear
2:50 PM 89.6 °F 93.4 °F 68.0 °F 49% 30.04 in - South 9.2 mph - N/A   Clear
3:20 PM 87.8 °F 93.8 °F 71.6 °F 58% 30.04 in - SSW 9.2 mph - N/A   Clear
3:50 PM 89.6 °F 98.2 °F 73.4 °F 59% 30.04 in - South 9.2 mph - N/A   Clear
4:20 PM 89.6 °F 98.2 °F 73.4 °F 59% 30.01 in - South 6.9 mph - N/A   Clear
4:50 PM 91.4 °F 96.8 °F 69.8 °F 49% 30.01 in - South 6.9 mph - N/A   Clear
5:20 PM 91.4 °F 96.8 °F 69.8 °F 49% 30.01 in - SE 6.9 mph - N/A   Clear
5:50 PM 91.4 °F 93.2 °F 64.4 °F 41% 30.01 in - Variable 4.6 mph - N/A   Clear
6:20 PM 89.6 °F 90.1 °F 62.6 °F 40% 30.01 in - West 9.2 mph - N/A   Clear
6:50 PM 89.6 °F 90.1 °F 62.6 °F 40% 30.01 in - WNW 6.9 mph - N/A   Clear
7:20 PM 87.8 °F 89.4 °F 64.4 °F 46% 30.01 in - WNW 8.1 mph - N/A   Clear
7:50 PM 86.0 °F 88.2 °F 66.2 °F 51% 30.04 in - NW 8.1 mph - N/A   Clear
8:20 PM 86.0 °F 88.2 °F 66.2 °F 51% 30.04 in - NW 4.6 mph - N/A   Clear
8:50 PM 84.2 °F 86.6 °F 66.2 °F 55% 30.04 in - WNW 4.6 mph - N/A   Clear
9:20 PM 84.2 °F 85.6 °F 64.4 °F 51% 30.04 in - Variable 1.2 mph - N/A   Clear
9:50 PM 84.2 °F 85.6 °F 64.4 °F 51% 30.06 in - Variable 2.3 mph - N/A   Clear
10:20 PM 82.4 °F 83.9 °F 64.4 °F 54% 30.04 in - Calm Calm - N/A   Clear
10:50 PM 82.4 °F 83.9 °F 64.4 °F 54% 30.04 in - Calm Calm - N/A   Clear
11:20 PM 82.4 °F 83.9 °F 64.4 °F 54% 30.04 in - Calm Calm - N/A   Clear
11:50 PM 82.4 °F 83.9 °F 64.4 °F 54% 30.04 in - East 2.3 mph - N/A   Clear